Location: *
(44.1392°N, 4.8079°E)
Time: 21:51:58
(UTC+00:00)

Lacrosse 5 rocket - Pass Details

Date: 21 June 2021
Orbit: 460 x 633 km, 57.0° (Epoch: 02 August)

Event Time Altitude Azimuth Distance (km) Brightness Sun altitude
Rises 03:02:37 0° 312° (NW) 2,495 4.6 -8.4°
Reaches altitude 10° 03:04:44 10° 312° (NW) 1,627 3.7 -8.1°
Maximum altitude 03:08:22 87° 42° (NE) 483 1.1 -7.7°
Drops below altitude 10° 03:12:08 10° 132° (SE) 1,679 3.9 -7.2°
Sets 03:14:21 0° 133° (SE) 2,585 4.8 -6.9°
